{"data":{"norad_id":52840,"intl_designator":"2022-062L","name":"STARLINK-4049","alt_names":[],"object_type":"PAYLOAD","status":"ACTIVE","operator":null,"country":"US","launch_date":"2022-06-17","launch_site_code":"AFETR","launch_vehicle":null,"mission":null,"orbit_class":"UNKNOWN","rcs_meters":null,"size_class":null,"mass_kg":null,"dimensions":null,"purposes":["comms"],"wikipedia_slug":null,"has_3d_model":false,"image_url":null,"decayed_at":null,"tle_current":{"epoch":"2026-09-19T12:12:13.078944Z","epoch_age_seconds":152066,"freshness":"FRESH","line1":"1 52840U 22062L   26262.50848471  .00034137  00000+0  10977-2 0  9999","line2":"2 52840  53.1612 208.0263 0002309  60.5407 299.5825 15.31963402235550","mean_motion":15.31963402,"eccentricity":0.0002309,"inclination_deg":53.1612,"raan_deg":208.0263,"arg_perigee_deg":60.5407,"mean_anomaly_deg":299.5825,"bstar":0.0010977,"rev_number":23555,"period_min":93.997023565972,"perigee_km":468.37369565046,"apogee_km":471.53614449915,"semimajor_km":6848.0919200748,"source":"CELESTRAK","updated_at":"2026-09-20T09:00:40.112763Z"}}}